GFSGL_850_rhum_162.txt.gz
RH
22 24 23 24 23 22 13 6 5 5 6 8 9 8 6 7 7 6 6 6 8 12 12 15 33 66 87 93 100 100 100 100 100 99 99 100 100 100 99 100 99 100 100
32 29 29 29 32 33 23 12 7 6 6 7 8 8 7 8 10 10 9 7 6 9 10 10 11 16 58 90 100 100 100 100 98 99 99 99 99 100 100 100 100 100 100
34 36 34 36 41 40 34 29 18 12 9 8 8 8 7 8 11 15 17 12 8 9 10 10 12 14 18 53 88 98 99 100 100 98 97 100 100 100 100 100 99 100 100
46 45 46 49 52 51 43 37 35 27 16 12 11 10 9 9 12 16 18 19 12 11 11 10 14 22 22 24 41 70 94 93 96 94 93 96 98 100 98 100 99 99 100
52 51 52 52 57 62 54 46 47 42 24 14 16 14 11 11 17 17 19 18 17 11 11 9 10 16 26 31 42 49 57 88 95 98 92 91 94 95 97 98 100 100 100
55 55 55 56 61 63 59 54 54 50 32 16 13 15 16 24 28 24 22 18 16 15 11 11 9 10 15 23 37 62 60 63 82 93 100 92 95 95 95 97 97 100 98
57 57 56 58 62 62 60 59 58 55 41 22 13 19 32 41 31 32 30 25 21 20 18 14 10 10 10 12 18 32 46 66 81 87 95 95 94 96 96 96 96 98 96
58 58 59 58 59 58 61 62 65 59 40 22 14 19 30 50 63 42 36 33 32 28 31 34 16 12 12 12 13 15 19 32 62 80 91 96 96 97 95 95 93 97 96
61 63 63 56 55 54 58 59 61 57 41 25 14 14 17 36 96 63 44 40 42 34 33 59 42 20 14 12 10 12 16 21 30 48 66 72 70 70 97 97 96 96 95
64 64 60 45 49 51 55 56 56 54 44 23 13 13 17 28 46 100 63 52 52 43 36 34 81 67 22 15 11 12 13 15 14 14 19 28 34 38 43 64 92 94 96
62 42 34 42 49 57 58 58 57 47 40 23 17 16 22 29 46 100 90 54 58 58 46 46 52 49 48 26 20 18 17 14 13 13 14 19 28 35 45 68 81 78 86
44 32 38 41 44 49 51 50 44 36 30 30 24 22 28 35 48 83 94 60 67 60 56 55 53 46 39 32 30 27 22 17 15 13 13 14 15 25 41 48 49 57 69
36 40 43 46 43 39 28 33 36 35 44 42 29 22 28 40 50 49 50 42 59 58 50 56 53 46 38 34 35 35 26 23 21 18 18 19 19 17 17 19 23 24 24
36 40 41 46 41 38 38 49 54 52 56 51 43 38 44 60 53 38 35 27 33 48 43 47 44 40 37 35 32 34 37 38 36 31 26 23 20 16 14 14 12 12 11
40 37 37 42 43 44 52 58 63 67 65 61 60 55 61 85 94 93 83 31 24 27 35 39 30 24 25 27 32 35 40 41 42 44 34 27 23 21 19 18 16 15 14
41 40 38 39 43 48 50 54 70 79 78 70 70 69 77 97 84 60 36 30 26 26 30 26 25 25 25 27 29 38 45 50 56 54 48 42 36 31 27 23 21 20 20
46 42 41 42 44 46 49 54 65 81 82 66 80 86 98 73 68 43 31 31 26 27 28 25 26 28 29 31 31 34 48 71 80 66 62 54 44 41 34 28 24 23 24
49 46 43 41 43 48 51 62 76 78 72 80 91 96 99 80 63 45 36 32 31 26 25 27 28 29 31 33 35 38 49 69 79 84 81 70 56 47 34 29 28 29 29
51 48 48 48 49 52 56 69 78 85 78 86 95 97 98 85 68 47 34 31 27 28 27 29 31 32 33 35 41 44 49 69 87 94 90 78 65 49 35 32 32 34 35
51 48 48 49 50 42 43 57 63 76 83 82 90 95 93 84 67 51 35 29 32 32 32 32 33 34 36 40 44 44 54 65 83 88 89 86 63 40 35 37 41 44 49
50 50 52 52 48 36 34 38 54 67 76 83 86 82 82 73 59 49 38 35 35 34 35 36 38 38 39 43 48 47 51 60 74 81 90 74 43 36 39 43 45 49 53
51 51 50 47 34 35 36 43 48 57 66 66 70 75 74 65 57 51 41 38 36 36 36 39 40 41 41 43 48 51 60 74 80 90 83 52 41 38 40 44 50 54 57
53 47 40 36 46 43 44 45 45 49 54 67 72 72 66 62 54 49 42 39 38 37 38 40 42 44 47 50 53 60 72 75 87 91 61 49 42 41 40 43 51 58 63
46 31 38 51 49 47 45 41 42 49 62 70 69 68 67 64 54 46 42 40 38 38 39 42 44 48 56 59 63 70 77 91 98 77 57 48 43 45 45 46 48 55 64
35 42 55 53 47 47 45 41 41 52 60 61 64 65 65 59 50 42 39 39 41 42 42 45 48 56 63 69 74 78 94 97 93 71 63 56 50 53 58 57 55 53 54
41 56 56 50 53 50 45 41 46 50 51 55 60 56 50 45 40 38 40 42 43 44 46 48 51 59 71 77 83 91 98 99 94 78 72 71 66 68 72 71 68 65 64

GFSGL_850_rhum_165.txt.gz
RH
28 26 24 24 25 22 13 7 5 5 6 6 7 7 6 6 6 7 6 5 5 6 7 10 13 18 39 73 97 98 100 100 100 100 100 100 100 100 100 100 100 100 100
30 32 32 29 31 24 18 14 10 8 8 8 9 8 8 8 9 9 9 7 5 5 7 7 10 11 18 28 50 87 93 100 100 100 100 99 100 100 100 100 100 100 100
38 38 37 35 36 27 24 24 21 16 12 11 11 11 11 11 13 14 13 12 9 8 8 8 10 10 12 19 28 46 75 92 98 100 100 100 98 98 100 100 100 100 100
44 46 42 42 38 34 31 30 30 24 16 13 15 16 16 17 17 17 17 17 14 11 10 10 13 12 13 21 32 32 39 48 75 98 100 100 98 99 98 98 99 98 99
50 50 48 45 42 42 38 35 35 31 18 16 21 23 22 29 22 19 18 17 16 13 13 10 10 13 17 20 40 45 37 42 44 67 92 100 98 91 93 96 97 97 99
56 52 50 46 48 48 44 42 42 38 24 17 21 28 28 33 27 24 23 18 17 16 12 12 10 11 13 16 21 38 46 41 51 58 73 90 96 100 99 96 96 97 96
60 56 53 50 51 50 50 49 50 46 30 18 22 30 34 59 35 27 26 22 19 17 17 14 12 11 12 13 15 17 18 27 47 68 67 83 97 97 97 97 96 96 96
60 58 56 54 51 53 55 52 55 49 34 18 17 22 34 63 67 42 32 31 30 24 27 47 30 20 13 11 11 11 12 13 21 46 70 78 87 100 97 96 97 96 96
61 56 57 57 49 51 54 52 56 49 35 18 14 17 29 47 78 38 34 34 31 27 30 68 86 48 19 15 12 11 12 13 19 30 46 48 49 48 72 97 94 96 96
58 56 61 56 46 46 51 52 56 51 40 18 14 15 20 33 75 44 24 35 26 35 35 54 55 88 25 20 15 15 13 12 10 10 13 19 23 28 26 33 64 80 95
60 62 64 53 44 52 54 56 58 50 36 21 17 17 22 28 48 50 13 22 30 44 40 42 57 27 45 25 24 23 22 16 13 11 11 11 12 16 20 23 28 30 47
64 65 54 41 48 55 57 52 50 41 28 28 21 20 22 26 28 16 13 12 23 34 30 31 30 25 28 26 23 29 24 19 16 14 12 12 12 13 17 20 19 18 21
66 51 36 44 50 51 47 42 38 34 35 34 28 24 24 32 31 17 16 14 16 25 22 26 27 25 26 25 24 24 23 23 22 20 20 18 17 15 14 14 16 16 15
61 38 42 46 47 41 31 37 41 41 40 42 36 30 30 37 31 20 18 20 17 20 20 21 21 23 24 26 24 25 30 32 33 32 31 24 20 16 14 13 12 12 12
48 40 45 50 46 38 39 45 50 51 53 51 46 39 40 57 55 34 33 24 17 17 19 21 22 20 21 23 24 28 34 43 42 42 35 33 28 21 20 17 15 21 36
37 42 41 45 45 41 44 47 61 75 70 64 64 56 52 53 47 41 22 16 17 17 20 20 20 21 22 23 25 35 52 68 69 60 49 44 54 38 28 22 20 32 56
37 35 36 38 40 40 44 48 51 75 80 75 71 82 81 62 53 45 26 20 18 19 21 21 23 25 26 28 29 34 54 64 74 68 61 49 46 40 43 36 28 44 80
44 41 36 35 37 40 44 48 59 69 67 66 81 98 94 72 61 45 32 25 24 22 22 24 26 28 30 31 32 35 43 63 75 76 67 60 44 43 33 38 44 49 91
50 48 44 42 42 44 51 57 65 76 85 93 95 97 97 81 69 48 33 27 25 25 25 27 28 31 33 36 38 38 43 53 66 75 71 63 39 58 41 54 80 59 86
54 50 46 46 48 53 59 61 67 78 83 91 96 95 93 85 70 50 36 29 28 28 29 30 32 34 36 40 42 44 55 67 76 75 76 55 36 41 66 64 76 100 99
54 52 50 49 52 52 54 56 67 74 77 86 90 90 84 78 63 46 39 33 32 32 33 34 35 36 38 42 45 47 52 62 67 75 75 47 35 37 47 57 86 96 90
52 52 50 50 53 58 55 55 57 65 72 78 78 71 69 67 53 46 40 36 35 35 36 37 38 39 41 44 48 52 61 69 73 85 68 45 40 39 39 48 48 89 97
51 50 50 54 58 53 47 49 54 59 62 63 56 61 64 58 52 46 40 37 37 37 38 39 40 42 46 50 52 56 66 73 83 89 60 48 44 45 48 61 52 56 56
51 52 55 56 48 44 48 49 48 46 44 46 57 62 57 54 50 45 40 38 38 39 40 42 44 47 54 58 62 67 73 87 94 84 64 56 50 51 55 58 60 58 62
56 58 50 38 42 51 50 48 42 40 44 54 58 54 54 52 49 44 40 38 39 41 42 44 46 50 58 64 69 73 85 93 96 84 70 67 61 59 65 69 70 69 65
58 47 35 47 57 54 51 46 42 41 48 54 51 52 52 48 44 41 38 40 42 44 45 46 48 52 61 71 77 84 91 97 97 93 81 81 78 76 79 82 80 76 75

GFSGL_850_rhum_168.txt.gz
RH
36 30 28 21 18 14 11 8 7 7 8 9 8 6 6 7 7 8 9 7 11 18 32 35 18 57 87 86 91 98 100 100 100 100 100 100 100 100 100 100 100 100 100
34 32 32 26 19 18 16 14 11 10 10 9 9 8 7 8 9 9 9 8 6 7 11 13 8 21 55 91 94 94 96 100 100 100 100 100 100 100 100 100 100 100 100
34 36 32 26 24 21 23 21 18 14 12 10 10 11 10 11 11 11 11 11 9 8 8 11 10 11 31 42 49 54 90 98 99 100 100 100 100 100 98 99 100 99 100
38 39 37 29 29 27 28 26 24 18 13 12 12 13 12 14 14 14 15 17 22 21 30 42 25 12 11 11 38 30 22 82 96 93 90 100 100 97 100 100 99 98 96
44 45 42 37 36 36 36 32 30 20 14 15 17 18 17 16 17 19 19 20 24 28 26 37 23 12 11 11 13 16 16 49 89 94 93 94 96 87 98 100 99 100 97
58 72 46 44 44 45 41 36 36 24 16 17 19 24 37 28 22 21 20 30 30 51 54 44 21 10 10 10 11 11 11 15 52 98 100 100 95 95 92 100 100 99 100
81 89 84 77 80 75 69 60 51 37 19 15 19 66 97 86 26 22 21 29 33 61 73 68 69 17 11 13 13 10 10 11 17 41 83 81 82 83 98 93 100 100 96
81 84 95 95 90 93 87 86 79 68 53 52 40 88 95 61 21 20 51 87 91 78 82 93 92 55 13 18 51 17 11 12 13 22 39 42 44 41 64 100 96 100 99
85 86 93 94 91 92 88 88 82 72 53 24 29 45 96 99 25 23 80 78 94 92 98 48 77 73 14 15 39 22 12 10 11 12 17 21 23 23 18 29 54 100 100
93 84 85 95 91 92 95 96 92 75 32 25 15 17 19 100 39 15 63 91 100 100 95 99 38 19 16 14 16 16 14 18 12 14 15 16 11 11 11 14 34 85 100
99 84 68 74 56 57 95 99 96 86 46 19 17 19 25 36 47 11 10 45 76 94 100 100 65 15 16 17 18 20 19 23 60 90 96 84 52 35 27 30 35 18 34
94 91 87 83 73 90 87 70 84 64 31 25 50 89 80 46 25 13 10 9 10 53 64 74 23 16 17 19 20 21 20 68 96 100 100 100 100 90 66 83 31 63 25
86 86 91 93 88 94 99 78 94 89 64 76 96 100 100 100 92 21 14 11 10 13 13 14 15 18 20 25 19 21 84 94 100 100 100 100 100 100 100 84 97 98 96
83 86 84 80 86 92 95 95 91 84 83 86 91 98 100 100 100 100 86 59 13 14 14 16 16 21 32 61 89 100 100 100 100 100 100 100 100 100 100 100 100 100 100
81 79 78 80 82 85 82 80 78 83 79 83 98 100 100 100 90 38 32 20 14 12 14 20 44 78 100 100 100 100 100 100 100 100 100 100 100 97 93 92 96 92 86
74 72 72 79 74 72 68 71 58 56 51 49 48 84 64 67 37 32 16 13 14 13 34 60 82 97 100 100 100 100 100 100 100 100 100 100 94 88 83 80 84 84 73
69 68 75 77 70 66 72 81 62 67 75 71 69 70 92 50 48 35 23 15 16 16 61 87 97 100 100 93 96 100 100 100 100 100 100 100 100 92 88 83 87 87 77
65 69 64 62 69 72 87 97 100 100 100 100 80 100 78 57 60 43 31 23 54 33 34 79 98 100 94 90 94 100 100 100 100 100 100 100 100 100 98 92 89 94 82
44 40 36 36 39 41 67 100 100 100 100 100 100 100 100 77 69 55 41 37 45 59 43 73 70 86 100 100 100 100 100 100 100 100 100 100 100 100 100 100 100 99 87
49 44 42 40 40 47 87 100 100 100 100 100 100 100 100 80 94 95 48 36 34 35 41 64 56 72 97 100 100 100 100 100 100 100 100 100 100 100 100 100 100 94 85
62 51 49 47 44 46 61 99 100 100 100 100 100 100 94 100 100 100 100 60 45 40 32 39 54 58 90 100 100 100 100 100 100 100 100 100 100 100 100 100 100 97 92
68 63 52 51 48 51 68 98 100 100 100 100 100 85 85 93 100 100 100 74 33 30 30 32 39 58 66 74 95 100 100 100 100 100 100 100 100 100 100 100 100 100 100
77 76 56 56 53 53 58 96 100 100 100 100 100 90 75 100 100 100 100 44 34 32 31 33 35 38 49 48 54 93 100 100 100 100 100 100 100 100 100 100 100 100 100
79 71 56 56 52 53 64 78 97 100 100 100 100 100 100 100 100 95 61 36 34 33 34 36 38 40 43 49 72 100 100 100 100 100 72 100 100 100 100 100 100 100 100
62 53 53 51 51 59 63 86 100 100 100 100 100 100 100 100 96 63 40 34 34 35 37 40 41 43 46 52 58 65 74 80 87 88 98 100 100 92 100 100 100 100 100
53 52 52 54 57 53 51 89 99 93 94 100 100 98 92 82 76 51 35 33 34 38 41 42 44 46 50 58 63 68 78 85 89 90 89 100 100 100 100 100 100 100 100

GFSGL_850_rhum_171.txt.gz
RH
50 57 51 46 29 33 26 16 16 18 20 22 21 11 7 10 9 22 30 9 27 37 69 62 39 84 94 90 88 86 84 88 92 84 95 99 100 100 99 99 98 98 100
55 60 66 47 51 46 28 20 13 17 18 21 19 11 8 9 9 9 13 8 8 12 21 18 10 16 32 52 86 91 92 93 87 84 76 92 100 100 100 100 100 96 97
51 53 66 52 67 26 16 18 14 16 22 18 19 14 14 16 10 10 10 13 9 13 17 18 11 7 6 8 21 30 62 97 93 88 78 82 99 97 98 97 100 99 94
42 40 45 45 30 18 15 15 14 13 10 10 10 12 16 13 12 14 14 16 33 32 41 53 11 8 7 6 8 8 11 63 97 94 88 87 88 82 95 100 95 98 95
46 41 41 37 27 21 19 19 18 15 11 11 12 16 20 11 9 12 12 14 26 45 59 63 31 9 8 8 8 8 8 15 82 97 96 92 88 30 89 99 99 99 99
66 63 48 41 30 26 25 24 23 17 12 12 15 22 27 13 9 11 14 17 33 78 87 92 40 11 12 15 11 11 10 13 33 97 100 96 70 39 39 100 100 99 100
82 89 92 66 44 38 36 62 51 32 49 14 19 65 93 30 9 14 28 65 52 62 88 100 99 25 12 30 66 33 24 14 12 59 86 91 87 37 33 58 94 100 100
83 86 91 87 83 86 83 82 80 81 82 88 93 92 95 30 9 33 73 86 88 97 97 86 97 75 10 14 76 73 71 42 46 50 79 70 80 60 46 93 88 100 98
84 84 88 87 79 82 76 77 74 65 64 79 87 93 98 65 13 46 72 73 89 100 100 42 18 26 9 9 45 55 20 65 76 100 100 100 100 98 39 63 44 80 96
85 82 89 88 82 82 79 81 74 70 84 80 86 32 70 87 16 28 70 85 100 100 100 100 32 10 9 9 13 14 15 47 98 100 100 100 100 100 97 68 99 100 99
84 90 93 93 90 84 89 88 86 90 81 79 25 17 26 32 22 11 18 79 100 100 100 100 51 11 11 11 12 14 25 87 100 100 100 100 100 100 100 100 88 100 99
88 93 92 93 91 93 96 96 97 99 69 40 97 94 90 30 21 12 11 10 12 97 98 69 17 12 12 13 14 16 71 100 100 100 100 100 100 100 100 100 100 100 99
91 89 89 93 91 89 96 96 96 100 96 95 100 100 100 100 77 37 19 12 12 24 13 13 13 14 25 98 55 81 100 100 100 100 100 100 100 100 100 100 100 97 100
86 83 86 87 83 81 93 90 90 94 92 94 95 98 100 100 100 100 100 74 48 64 18 44 38 68 92 100 100 100 100 100 100 100 100 100 100 100 100 99 100 96 95
78 78 81 78 72 75 80 83 82 89 81 85 95 99 100 99 96 45 24 46 19 14 16 92 100 100 100 100 100 100 100 100 100 100 100 100 98 97 93 91 93 90 82
74 77 76 70 71 74 73 80 76 84 78 78 95 98 87 90 71 23 13 13 13 13 85 100 100 100 100 100 100 100 100 100 100 100 100 100 96 90 87 83 85 85 74
74 73 72 72 71 70 69 78 78 78 72 63 64 54 41 32 37 23 15 15 16 21 100 100 100 100 100 88 89 91 96 100 100 98 100 100 100 94 89 85 88 88 79
71 68 69 72 69 67 67 80 100 80 71 65 65 63 52 38 44 36 25 26 97 89 89 94 100 99 92 86 94 99 100 100 100 100 100 100 100 99 96 92 90 92 83
70 66 69 75 75 70 77 86 95 100 100 100 100 100 85 47 62 59 45 84 92 94 84 85 94 98 100 99 100 100 100 100 100 100 100 100 100 100 97 97 97 94 82
70 68 62 66 70 71 91 92 98 100 100 99 100 100 98 71 60 93 98 100 98 98 93 93 99 100 100 100 100 100 100 100 100 100 100 100 100 100 99 98 98 94 88
67 60 56 70 89 82 93 89 97 98 100 100 100 100 99 94 100 100 100 100 100 100 98 100 100 100 100 100 100 100 100 100 100 100 100 100 100 100 100 100 100 98 95
64 52 53 90 97 96 95 96 94 97 100 100 100 100 100 90 100 100 100 100 100 82 69 70 100 100 100 100 100 100 100 100 100 100 100 100 100 100 100 100 100 100 100
92 64 80 97 98 92 91 95 95 97 98 100 100 94 92 100 100 100 100 100 100 91 64 37 61 55 100 84 94 100 100 100 100 100 100 100 100 100 100 100 100 100 100
91 73 80 89 86 88 94 92 93 96 99 100 100 100 99 100 100 100 100 100 100 72 35 29 34 36 41 43 92 100 100 100 100 100 99 100 100 100 100 100 100 100 100
89 78 94 91 79 77 97 99 100 100 100 100 100 100 100 100 100 100 100 99 51 58 33 33 36 40 39 41 47 57 61 59 76 78 92 100 100 100 100 100 100 100 100
86 94 95 82 78 96 97 100 100 100 100 100 98 100 100 100 100 100 100 89 35 31 33 36 38 40 41 49 51 47 55 62 75 78 84 98 100 100 100 100 100 100 100

GFSGL_850_rhum_174.txt.gz
RH
55 48 44 45 45 38 36 27 20 18 17 23 15 12 8 8 7 10 11 8 11 15 15 8 8 13 21 33 63 67 73 93 99 75 84 80 67 87 100 99 99 96 92
55 52 48 48 44 40 35 22 18 17 16 21 21 13 8 8 8 8 10 8 9 12 11 7 6 6 6 10 16 23 29 93 96 98 89 73 48 81 94 97 100 100 99
61 56 54 53 51 46 34 26 23 18 18 23 26 15 12 11 10 9 12 13 11 16 12 7 6 5 5 6 7 8 15 57 67 94 80 42 23 31 75 85 99 100 100
60 60 59 55 51 46 28 16 12 10 11 12 11 12 11 11 11 12 14 18 20 21 16 12 7 6 6 6 6 6 7 12 27 58 37 22 14 11 32 72 76 97 94
61 59 57 56 49 32 18 14 13 12 11 9 10 11 12 10 9 11 13 15 18 25 28 22 11 8 9 9 13 8 7 7 10 22 24 18 16 10 20 42 98 98 100
60 54 51 47 41 31 20 16 15 14 12 10 12 15 14 11 8 8 14 20 22 34 50 54 36 11 16 28 56 32 18 14 14 20 32 32 40 32 28 42 74 92 100
73 64 51 46 42 32 23 18 18 16 13 12 16 38 38 17 9 12 23 49 58 57 56 99 79 19 15 36 80 62 21 23 25 47 52 72 88 86 49 43 43 88 100
83 83 72 58 46 35 28 30 32 31 32 26 57 99 92 35 9 20 55 81 90 89 58 41 33 16 9 15 49 34 22 43 88 97 100 100 99 99 72 59 53 33 96
83 85 87 76 71 62 73 73 76 76 80 88 85 94 94 63 12 38 64 77 84 90 73 58 35 10 9 10 17 14 21 49 81 100 100 100 100 100 92 40 24 22 21
82 85 85 83 80 78 76 78 75 68 69 81 86 87 82 54 16 22 66 85 85 88 98 78 42 10 9 9 10 12 22 53 92 95 97 94 91 81 63 78 74 72 67
84 85 86 86 79 80 77 78 74 70 72 73 52 43 50 29 20 12 32 36 55 76 95 77 29 11 10 11 11 15 56 86 97 96 95 93 88 80 82 86 96 100 100
85 89 89 89 84 81 81 85 79 81 77 70 42 28 29 24 22 11 10 10 16 26 34 25 13 12 15 21 34 66 97 84 98 97 95 94 95 81 98 77 95 100 100
86 90 93 92 91 89 88 90 92 90 81 61 70 85 77 47 48 24 15 12 12 13 15 14 16 31 55 80 84 92 93 98 96 96 94 95 98 87 92 81 87 87 92
90 92 91 95 91 91 95 94 94 96 82 69 86 96 99 92 80 62 40 36 27 20 15 21 62 82 96 100 99 95 92 94 97 94 95 89 94 87 90 86 83 88 75
89 91 91 92 90 89 93 90 91 92 81 82 87 94 97 93 92 74 38 26 17 15 15 53 99 97 96 94 94 96 100 91 87 95 96 88 94 95 85 90 81 84 73
89 88 89 91 84 83 87 85 86 90 90 88 92 88 93 90 89 70 24 14 14 14 37 86 98 98 96 94 91 91 100 95 88 100 96 89 94 99 88 93 90 80 81
83 83 85 84 75 77 80 81 80 89 86 80 86 88 92 72 88 67 21 15 16 24 66 96 96 95 94 88 86 94 100 100 95 97 97 90 90 100 88 92 92 78 83
77 79 80 76 70 75 77 78 76 75 78 78 82 86 70 48 39 35 21 21 46 52 55 77 89 88 88 88 95 94 94 96 94 94 97 92 88 100 87 94 92 95 84
75 77 75 73 72 73 73 74 70 65 73 65 67 60 55 48 42 43 34 38 99 93 75 74 68 81 90 94 95 96 97 95 94 99 96 94 88 100 99 88 85 98 90
75 74 70 71 73 73 72 68 68 71 76 73 69 66 55 49 54 53 48 54 61 86 79 72 78 66 80 91 97 100 98 100 100 94 96 100 89 94 100 94 86 96 99
76 72 68 67 69 69 67 67 76 90 92 92 85 74 54 62 52 76 87 77 80 98 77 73 88 80 79 95 90 100 100 95 98 96 100 92 95 100 87 100 97 87 96
76 73 70 66 67 68 66 68 90 91 96 94 94 90 91 94 82 100 100 93 88 81 73 64 78 94 81 68 71 85 100 100 100 100 100 95 98 100 90 100 94 96 91
80 78 80 94 70 63 70 84 90 91 94 95 92 96 98 98 96 100 100 94 90 85 50 36 37 48 48 42 48 61 87 100 100 97 91 97 100 100 94 100 100 93 100
88 88 96 95 79 72 78 90 93 92 94 94 90 94 95 95 96 100 100 96 94 81 41 34 30 29 33 46 52 97 83 79 88 91 91 91 99 100 92 88 100 86 100
96 97 96 94 87 86 84 91 92 92 95 96 97 96 94 86 100 100 96 92 90 74 33 26 27 31 37 38 44 45 49 54 64 71 79 84 100 100 100 100 100 99 88
97 97 96 96 96 94 87 92 94 94 93 96 100 99 93 93 100 95 92 86 76 51 29 29 33 38 37 41 39 41 44 46 50 66 74 83 94 100 100 100 94 95 97

GFSGL_850_rhum_180.txt.gz
RH
58 49 49 50 48 46 43 43 40 34 26 18 12 10 8 8 8 9 8 9 9 8 7 6 6 6 6 6 6 10 22 24 34 39 15 9 6 10 59 82 98 100 90
61 51 50 50 49 46 45 42 37 37 24 16 13 11 8 8 9 10 9 10 10 9 8 7 7 7 6 6 6 7 9 13 16 10 8 7 6 10 15 55 77 89 80
63 53 50 50 46 47 46 43 45 33 21 17 16 11 8 9 10 10 12 11 11 10 8 8 7 6 6 7 7 6 7 9 9 9 8 8 8 7 9 19 31 56 80
64 56 52 49 46 46 57 50 43 31 21 18 16 13 12 11 12 12 14 13 13 14 13 12 11 10 10 11 9 7 8 8 9 9 9 10 10 10 10 6 7 17 38
65 59 54 50 51 52 89 51 43 29 22 18 15 13 15 15 14 14 15 15 16 18 18 16 12 11 11 12 11 9 8 10 14 14 18 20 15 12 15 14 8 14 23
66 60 54 51 51 82 77 52 46 29 23 20 16 14 13 13 12 11 12 14 16 22 20 14 13 12 12 12 10 11 10 16 34 37 32 30 30 22 19 17 12 8 29
66 63 56 57 64 99 91 56 44 30 20 19 18 16 13 12 9 11 15 18 22 25 20 16 13 12 11 10 11 12 11 23 43 72 73 63 52 34 29 21 24 26 44
68 65 60 61 92 98 87 49 31 22 19 15 18 19 16 12 10 14 17 32 33 36 33 27 16 13 11 11 13 13 16 30 60 82 78 72 67 74 42 54 44 37 34
69 66 65 81 99 93 94 40 26 20 22 16 22 33 29 14 10 13 23 39 46 45 42 33 19 14 13 12 14 15 18 29 55 76 82 70 55 53 65 53 39 35 30
76 90 97 100 99 98 69 38 27 23 22 21 39 56 62 47 14 21 33 46 50 44 40 35 20 15 14 14 16 18 21 28 49 56 58 58 53 50 62 76 69 59 60
94 99 100 98 96 88 55 38 29 34 34 41 60 68 69 70 37 26 44 47 48 41 36 31 19 15 15 19 21 21 23 34 52 58 62 56 50 48 51 69 77 71 75
99 100 100 96 88 71 48 38 47 55 56 63 76 74 76 68 52 29 50 59 48 43 28 24 15 16 22 31 37 38 43 48 48 47 50 52 52 52 57 61 76 68 65
100 99 98 88 77 60 50 53 67 62 66 73 74 72 60 57 35 20 45 60 30 27 22 18 16 24 36 45 58 57 61 49 41 44 49 60 74 72 74 52 73 64 66
94 89 85 84 81 72 66 67 66 66 71 70 68 66 53 40 40 27 16 16 15 16 16 19 23 33 39 49 58 61 64 54 43 47 50 63 83 67 64 58 65 75 63
88 84 83 85 81 78 76 70 69 64 60 61 62 59 39 25 25 27 26 20 20 22 18 19 33 44 47 58 75 73 57 55 53 56 60 63 81 72 66 61 58 72 66
86 85 84 85 83 82 82 81 78 74 74 76 82 72 47 47 62 58 53 38 24 17 15 20 34 46 53 64 65 56 56 60 63 68 70 66 81 74 68 64 59 61 59
75 80 84 85 86 86 87 89 85 86 94 89 79 59 58 62 90 79 70 65 28 16 15 22 39 50 56 55 49 52 57 58 53 57 71 69 84 80 73 70 70 65 60
77 79 82 85 86 88 91 93 88 89 92 95 85 73 74 96 96 91 89 85 45 16 16 29 42 47 51 50 55 57 59 59 53 59 80 78 84 89 81 79 76 74 68
78 83 84 85 87 90 93 93 91 91 84 81 84 96 98 99 100 100 98 88 67 19 23 37 44 45 45 52 56 54 53 53 57 75 85 87 82 92 86 86 85 78 69
79 82 82 86 90 94 94 91 90 88 83 78 81 82 93 100 99 95 82 64 42 23 36 49 43 42 43 44 46 46 51 55 69 90 97 91 87 89 86 89 87 86 77
82 85 86 87 89 90 90 88 84 85 83 80 79 80 77 77 83 84 75 43 33 32 39 50 53 52 47 40 36 42 46 51 81 96 96 89 87 93 96 98 92 86 84
84 84 86 86 87 87 85 85 81 80 81 80 79 81 82 82 82 65 58 50 48 46 52 57 58 55 46 40 37 40 46 64 76 74 83 88 93 95 98 98 92 91 87
96 87 86 86 88 83 87 88 85 79 78 77 74 68 68 74 72 63 51 53 57 63 67 69 66 65 49 37 38 37 36 44 64 74 82 89 95 100 98 95 95 90 86
99 94 87 90 85 89 93 90 93 94 82 76 69 58 58 63 68 63 60 66 77 84 90 88 79 74 46 34 33 31 33 37 54 71 75 71 78 96 100 93 87 85 87
100 99 98 98 95 96 97 96 96 96 95 88 65 60 73 82 82 78 77 82 91 95 96 95 92 81 44 30 28 30 34 42 47 50 57 66 67 78 96 88 90 100 100
100 100 100 99 96 98 97 96 96 96 95 92 75 70 81 90 87 85 86 92 97 100 100 98 92 75 35 26 28 32 35 40 44 46 47 52 62 74 87 89 91 100 98

GFSGL_850_rhum_183.txt.gz
RH
64 61 57 57 55 51 49 44 43 42 39 34 19 14 12 12 10 10 10 9 9 8 8 8 8 8 8 7 8 8 10 11 11 10 9 8 7 8 15 42 65 85 86
61 59 56 54 51 49 48 45 44 45 39 29 19 16 13 10 10 10 9 9 10 9 8 8 9 9 9 9 9 9 9 9 8 8 9 8 8 8 9 8 15 43 86
62 57 54 53 51 49 47 46 46 45 38 31 22 18 12 9 9 10 10 10 11 9 9 9 10 10 10 10 10 9 9 9 9 9 10 10 9 8 9 7 7 12 59
62 59 57 54 51 50 49 47 48 44 42 30 26 19 12 10 10 11 11 13 11 11 11 12 13 13 13 13 11 10 9 10 11 12 12 12 10 9 10 9 8 8 21
65 64 60 55 54 52 50 49 49 81 45 31 29 19 13 12 11 12 15 16 15 16 16 15 15 16 15 14 13 12 11 12 14 16 14 13 11 10 11 11 10 11 16
69 68 63 60 58 54 50 51 82 92 38 30 30 22 16 14 14 15 20 17 18 20 18 17 16 17 16 15 15 15 14 14 16 17 13 11 11 11 11 11 13 11 14
68 70 66 60 55 52 53 63 100 85 63 30 30 23 17 16 12 14 19 20 22 22 18 17 16 15 15 14 14 15 15 16 20 17 12 12 13 16 14 13 24 28 31
72 74 73 67 75 56 59 96 100 99 45 23 23 18 19 14 13 15 22 26 30 26 26 20 16 15 14 15 16 17 19 21 28 22 16 18 24 29 24 34 43 38 30
80 74 71 80 90 61 70 98 99 83 33 34 22 17 17 15 14 17 32 39 42 38 36 28 19 15 15 15 17 19 22 23 29 40 37 31 30 34 37 43 38 34 26
85 77 72 90 92 69 90 99 98 56 32 32 21 22 20 18 14 36 43 47 47 42 41 35 20 16 16 17 18 22 22 21 16 20 30 30 33 36 50 57 62 57 45
95 89 76 92 97 97 99 98 91 52 30 30 26 32 37 26 23 51 64 55 50 48 44 39 25 16 17 18 22 24 19 14 18 22 26 29 29 35 42 51 62 67 58
100 99 97 98 98 98 98 99 51 31 28 29 34 60 65 71 64 58 66 67 62 56 44 36 22 16 18 23 29 26 20 20 22 26 30 25 27 32 40 54 69 67 64
98 96 97 99 98 98 98 79 40 31 28 28 52 57 71 78 73 50 50 64 71 63 57 41 25 17 24 32 33 30 28 26 22 27 32 31 39 42 52 53 74 68 67
98 99 99 98 98 98 99 75 42 35 31 42 60 65 62 70 69 51 45 57 75 65 43 39 20 24 38 43 39 36 27 27 26 30 34 34 42 64 57 48 52 66 64
99 98 98 99 100 95 84 63 46 43 44 44 46 45 53 56 46 43 26 21 33 41 26 23 23 29 41 47 47 40 40 35 33 30 32 38 50 67 56 52 54 54 52
100 99 97 95 86 79 67 57 57 73 57 56 59 60 60 66 55 37 33 26 18 19 22 21 22 35 45 51 51 49 43 40 37 36 38 45 54 66 63 58 54 51 48
91 86 84 84 84 80 73 69 74 80 77 72 72 75 81 75 50 41 44 53 47 35 22 17 23 40 49 50 55 52 48 46 45 41 42 48 56 73 74 65 60 53 47
89 84 82 83 82 81 80 80 81 80 80 82 81 91 84 74 60 63 74 70 53 37 23 16 21 43 50 52 54 52 53 49 43 48 54 55 58 71 81 75 71 65 54
81 84 83 84 85 85 84 84 85 84 81 79 86 91 76 68 72 86 91 76 61 58 40 16 23 49 54 54 52 50 48 44 45 55 60 66 67 72 86 82 80 75 65
76 76 79 82 84 86 85 85 88 92 88 86 88 81 74 88 99 100 99 87 87 78 68 23 29 47 52 49 48 47 49 46 47 52 63 80 78 81 89 87 85 83 79
96 82 80 83 85 84 84 87 92 93 92 92 87 74 71 66 76 86 82 82 84 74 50 26 38 54 51 51 47 43 41 40 41 49 64 77 82 85 91 91 89 88 87
100 94 88 83 85 86 88 91 93 93 92 88 83 82 79 79 80 83 83 88 90 62 37 39 51 57 56 55 46 38 35 38 44 57 58 61 79 91 96 97 92 88 88
99 99 99 98 95 89 94 92 92 93 92 88 92 83 81 82 89 94 88 84 76 59 48 51 58 57 58 56 43 35 35 40 52 56 57 71 80 87 98 100 96 88 84
100 100 99 98 98 97 98 96 91 92 94 95 95 89 82 79 82 91 85 74 64 61 58 68 69 68 71 66 41 34 34 34 36 45 56 66 71 66 88 100 99 88 87
100 100 99 98 98 98 98 98 97 96 96 96 95 95 87 78 77 80 68 60 56 59 75 84 89 89 85 80 49 36 33 32 34 39 46 47 54 71 80 98 99 89 89
100 100 100 99 98 98 98 97 97 97 96 96 96 96 95 78 68 68 65 66 72 84 94 97 97 96 93 83 47 31 29 32 34 36 39 43 48 60 73 81 92 93 93

GFSGL_850_rhum_186.txt.gz
RH
62 66 88 81 68 49 52 47 42 41 41 37 32 23 17 14 13 13 13 11 10 9 9 9 9 10 11 11 11 11 11 10 10 10 10 9 9 8 8 8 11 28 53
64 85 84 86 64 56 59 53 46 42 44 40 36 22 17 14 13 13 12 10 10 9 9 9 10 12 12 13 12 12 11 11 10 10 11 11 10 10 10 9 10 18 45
68 94 96 94 68 63 65 57 49 47 45 42 35 22 17 14 13 13 13 10 11 10 9 10 11 13 13 14 13 12 12 12 12 13 14 14 13 12 13 11 10 11 23
76 99 95 96 74 68 65 56 50 48 47 43 34 24 18 14 12 13 12 12 12 10 10 11 12 15 15 15 14 13 13 13 15 16 16 15 14 14 14 12 12 10 12
93 95 97 92 72 64 58 55 50 48 47 41 35 25 17 12 11 12 12 13 12 11 13 15 16 17 16 16 16 15 15 16 17 18 16 15 13 12 14 11 10 10 10
76 80 90 77 79 88 64 53 51 50 48 50 33 23 33 12 11 13 15 16 15 16 16 16 16 17 17 15 16 17 18 19 18 18 16 13 12 10 10 9 9 7 9
78 79 84 83 85 80 68 56 52 52 50 79 44 71 19 14 15 14 17 20 18 18 18 17 17 18 17 16 17 18 19 21 20 17 14 11 10 9 9 8 9 12 15
83 87 86 90 86 71 85 74 54 54 83 82 98 52 19 20 19 16 19 18 19 20 18 17 17 17 15 16 18 19 21 22 20 16 12 11 11 11 13 15 17 18 20
83 85 87 86 72 77 77 90 80 66 98 97 98 43 21 24 20 18 16 20 22 22 27 22 18 17 16 16 18 20 23 22 22 15 12 13 15 16 15 18 18 19 22
90 87 89 87 83 83 94 98 96 99 98 98 89 40 26 22 17 15 18 26 26 33 37 29 21 17 17 17 19 22 24 21 15 13 12 14 16 18 19 22 28 37 39
96 96 96 98 94 99 99 98 97 98 98 97 71 40 24 20 15 14 25 31 37 41 39 36 28 18 17 18 20 24 24 17 13 12 13 15 16 20 21 25 40 50 50
100 100 100 100 100 98 98 97 99 98 96 89 62 37 28 21 20 16 30 40 52 50 48 43 34 19 17 19 24 28 20 16 14 13 16 16 16 20 27 33 47 58 57
99 99 100 99 97 97 97 97 97 97 96 66 40 32 29 27 28 37 42 61 63 61 66 55 44 26 18 22 30 30 20 18 15 16 17 17 19 24 31 44 54 56 60
98 98 98 97 98 99 98 98 97 96 77 36 28 29 31 43 53 56 64 63 67 75 77 75 56 30 21 32 39 37 26 18 17 22 23 22 27 38 40 34 31 34 37
98 97 97 99 99 97 98 97 97 97 70 31 25 25 29 43 47 50 45 46 42 58 75 60 44 24 23 35 41 38 29 21 20 22 25 27 34 41 47 44 40 37 35
96 97 97 97 98 97 97 97 98 78 39 33 33 30 37 42 48 48 55 38 42 72 71 44 26 22 24 36 44 41 35 27 27 30 29 34 40 47 55 51 45 39 35
98 97 97 98 97 97 98 96 88 54 45 46 52 55 56 52 66 60 54 40 41 39 33 24 22 22 23 38 48 47 44 39 34 33 30 37 42 53 63 57 50 45 39
100 100 97 98 97 94 91 91 70 52 70 71 68 69 73 78 77 66 60 52 36 28 24 23 22 19 26 39 47 47 46 41 35 33 36 45 48 52 62 64 58 55 50
96 96 90 87 86 84 81 72 61 67 77 69 74 81 80 88 84 73 52 43 41 41 34 27 20 16 23 39 48 51 51 45 43 37 42 50 55 58 65 70 68 68 64
91 90 88 86 87 88 85 80 79 86 90 77 78 78 84 96 90 75 67 65 68 52 42 48 35 17 24 44 53 52 51 44 41 39 46 56 59 63 73 78 78 76 72
91 99 98 99 98 87 87 86 87 90 91 90 85 79 83 82 66 65 75 65 76 68 73 67 56 24 29 50 52 49 49 45 40 41 48 53 56 62 75 82 84 83 81
88 96 100 98 98 94 88 90 90 91 93 92 86 84 87 85 68 58 60 73 69 75 84 78 50 26 35 47 46 50 47 40 38 39 44 47 52 63 72 81 89 90 87
94 91 99 100 98 98 96 92 91 92 92 93 90 89 92 89 78 72 69 74 81 90 91 72 37 41 52 53 55 55 44 35 37 39 44 50 57 65 70 73 88 97 91
100 99 98 99 99 98 98 95 94 93 94 96 93 92 90 84 76 75 79 87 94 95 92 64 46 51 55 55 59 53 39 34 31 35 41 46 54 61 61 66 86 96 91
100 99 100 100 99 98 98 98 97 98 97 95 94 95 93 91 83 81 86 93 95 94 76 60 56 64 63 63 67 60 37 31 32 31 35 41 50 52 54 62 75 86 89
100 100 100 100 99 98 98 98 98 98 97 97 96 97 96 92 94 87 85 88 90 87 70 61 69 80 81 79 76 68 40 31 30 30 35 41 48 51 55 66 76 87 96

GFSGL_850_rhum_189.txt.gz
RH
88 85 81 76 80 82 91 72 58 40 36 32 30 26 20 18 16 14 12 12 10 10 9 10 10 11 12 12 13 13 13 12 29 12 12 11 11 11 11 10 11 14 21
88 89 86 82 84 96 98 95 76 49 40 37 33 28 21 18 16 14 12 11 10 10 10 10 11 12 13 14 14 14 14 13 12 15 14 14 13 13 13 12 12 14 17
91 89 84 79 95 95 100 95 69 47 44 44 37 32 22 19 16 14 12 10 10 10 10 10 12 13 14 15 15 15 15 14 15 15 16 16 15 15 15 13 13 13 15
89 87 85 82 96 96 100 92 83 60 51 44 41 35 24 19 16 13 11 10 10 10 10 11 13 14 15 16 16 16 16 17 18 18 18 17 15 15 15 13 16 10 12
92 88 86 87 97 98 100 98 92 79 50 46 44 37 25 19 15 12 11 11 11 11 10 12 14 16 16 17 17 17 18 19 19 19 18 17 14 13 12 10 9 8 9
96 90 92 100 100 99 100 98 99 99 80 51 47 38 27 20 14 11 11 11 12 11 11 14 16 17 17 17 17 18 19 20 20 20 18 15 13 10 9 8 8 8 27
82 87 90 100 100 100 100 100 99 97 95 63 49 37 28 19 16 12 12 13 14 13 14 16 17 18 18 17 17 18 20 21 21 20 17 14 11 9 8 8 10 10 11
77 83 82 88 95 100 100 100 100 100 98 69 49 39 27 33 62 12 12 16 18 18 17 17 18 18 18 17 18 19 20 21 22 20 16 12 9 9 10 11 12 14 13
81 84 86 85 90 97 100 96 100 100 97 88 54 39 38 97 37 14 14 20 22 20 18 17 18 18 17 17 19 20 21 23 23 18 12 9 9 11 11 15 15 15 18
89 89 90 92 94 99 97 99 100 100 98 97 72 52 98 94 26 17 16 17 18 19 19 19 18 18 17 17 20 20 22 24 22 17 14 13 12 12 12 13 17 31 26
100 100 100 98 100 100 100 100 99 98 98 97 97 97 96 86 25 19 16 17 17 20 24 25 21 18 18 18 18 20 23 22 19 16 14 13 13 13 14 15 18 24 34
98 100 100 100 100 100 100 100 97 96 97 97 97 97 95 50 41 20 17 20 25 24 29 32 28 21 18 18 19 21 23 19 20 16 15 14 14 14 16 18 22 28 32
98 99 100 100 99 99 98 98 96 98 97 97 96 96 76 60 44 22 18 38 40 40 44 40 37 25 17 19 20 25 23 24 20 16 15 14 14 16 18 22 25 29 33
100 100 99 98 98 97 98 98 98 98 99 96 96 96 58 49 46 38 40 50 50 59 64 61 46 35 21 22 27 32 30 26 21 17 15 15 16 19 22 24 26 26 27
100 97 97 97 97 97 97 98 98 98 95 94 95 94 36 29 25 30 33 35 37 60 73 72 64 48 28 26 39 39 38 29 24 19 16 16 19 24 28 29 28 26 26
97 98 96 96 96 97 97 96 97 98 97 97 97 58 28 23 23 33 40 36 39 65 76 66 63 45 28 28 36 43 39 32 27 22 19 19 23 28 36 36 34 36 50
98 100 99 98 96 96 96 96 96 98 98 97 66 32 33 26 37 47 55 51 45 63 73 64 57 34 32 28 36 41 40 39 35 27 21 22 26 30 33 42 40 40 55
100 98 97 95 97 96 96 96 97 93 92 75 49 39 37 43 55 61 64 73 67 63 66 63 50 41 30 27 35 41 45 41 38 29 23 25 29 34 51 58 54 46 59
100 100 100 99 99 98 98 97 98 98 82 46 46 57 60 65 70 69 74 63 44 39 49 43 38 34 29 27 35 45 47 45 42 32 25 27 30 40 62 62 63 53 51
96 98 99 98 99 99 99 99 99 99 59 57 53 64 70 76 84 86 84 70 59 44 32 27 27 28 27 23 32 45 48 46 43 33 27 30 35 39 73 74 72 100 90
80 97 98 99 97 97 96 88 87 82 60 72 62 63 67 72 80 82 80 80 60 41 39 45 34 27 25 22 34 44 48 46 45 38 32 34 36 43 61 100 100 89 82
87 86 91 98 98 98 96 97 97 92 72 85 82 68 74 76 76 78 76 64 50 48 62 53 46 58 41 22 25 38 44 45 46 36 30 32 38 45 76 100 100 100 100
100 93 91 97 100 99 98 97 97 97 95 94 96 91 93 87 80 82 74 58 51 62 77 74 78 72 48 28 37 46 44 46 43 32 28 31 38 49 56 100 98 97 100
100 98 98 100 100 100 98 97 97 97 97 97 96 96 94 86 82 84 76 61 61 74 84 90 90 77 36 35 46 50 52 52 39 28 30 32 37 43 58 71 86 86 96
99 97 100 100 99 100 100 98 97 97 97 97 97 97 95 91 86 88 80 70 72 82 92 96 96 68 43 48 50 50 55 44 28 27 28 31 35 43 52 54 81 89 82
99 100 100 100 100 100 100 99 97 97 97 96 97 97 97 95 94 94 87 78 82 91 97 97 92 61 51 55 55 59 64 49 29 26 29 31 36 43 47 52 58 91 100

GFSGL_850_rhum_195.txt.gz
RH
98 96 98 98 95 91 84 84 76 74 70 44 32 28 32 30 32 35 20 21 27 38 39 34 29 27 24 21 20 23 30 39 45 43 48 35 32 53 45 48 55 70 31
99 97 96 100 99 98 91 87 81 80 79 62 43 40 36 33 24 20 24 34 66 62 22 26 15 14 22 34 28 35 42 33 45 45 48 50 54 34 38 58 58 51 48
100 100 100 100 100 100 96 92 91 90 84 74 65 55 40 31 25 37 51 74 80 29 17 12 11 13 32 37 36 30 30 21 43 45 50 51 57 37 60 55 53 79 44
96 98 100 98 98 98 100 99 99 98 91 89 75 69 70 59 69 75 86 82 32 19 15 12 12 14 14 17 18 20 19 26 41 47 50 54 56 34 55 59 63 74 72
100 98 97 99 100 100 100 100 100 98 96 94 87 90 93 99 100 97 83 38 21 18 14 12 12 12 14 16 16 16 18 24 51 56 56 58 57 62 74 38 70 72 79
99 99 93 99 94 97 100 100 99 98 100 100 100 100 100 100 100 89 46 25 20 16 14 14 13 12 14 16 16 17 17 27 50 67 69 65 34 22 25 68 17 72 89
95 91 84 90 89 87 87 97 99 100 100 100 100 99 100 100 99 92 36 25 21 17 15 12 12 12 15 16 17 18 18 18 22 24 19 22 19 14 10 34 10 20 30
93 97 100 100 89 94 96 91 95 99 98 100 100 100 100 99 99 68 38 29 25 18 14 12 12 14 16 17 17 18 18 18 19 19 19 19 18 13 8 7 8 45 60
94 94 100 97 98 99 98 98 100 100 98 98 100 100 100 99 98 93 50 41 28 18 14 13 14 15 16 17 18 17 18 18 19 19 19 19 17 9 7 8 60 98 100
78 88 97 98 99 98 100 100 99 100 100 100 100 100 99 98 98 96 47 43 33 21 19 38 18 18 17 17 18 19 18 18 18 19 19 18 14 10 8 9 32 89 91
92 96 98 100 100 92 96 98 99 100 100 100 100 100 99 98 97 96 66 34 21 26 92 25 33 20 20 18 48 31 21 18 19 19 19 18 16 12 10 8 8 15 62
97 98 99 100 99 95 100 100 99 100 100 100 100 100 98 97 97 98 95 42 24 86 87 30 28 20 24 22 50 40 22 20 20 20 25 41 51 18 11 10 9 8 9
80 89 92 98 100 99 100 100 100 100 100 100 100 99 97 96 97 97 85 50 91 96 92 35 26 29 20 21 28 26 21 22 23 35 77 98 65 23 13 11 9 10 12
67 79 92 95 97 100 99 99 99 99 99 99 98 97 97 96 96 96 96 97 97 96 70 37 40 34 22 18 20 22 22 27 40 65 100 92 31 16 35 30 45 25 66
77 75 80 90 94 97 100 98 97 98 98 98 97 96 96 96 95 94 93 94 95 80 47 40 44 40 28 24 22 22 28 55 62 98 100 79 67 96 100 56 84 93 99
72 71 81 87 90 98 100 100 98 96 96 97 98 98 99 93 93 96 96 96 96 85 68 43 44 35 42 38 38 26 74 86 81 100 96 91 100 100 100 91 89 87 88
99 97 92 98 100 100 100 100 99 98 97 96 97 97 96 93 94 96 96 96 87 49 60 61 48 53 84 82 75 66 99 94 96 100 96 99 99 97 89 82 76 72 68
100 90 97 98 98 99 100 100 100 91 95 95 95 96 96 97 97 97 96 96 98 68 88 74 83 90 96 95 93 97 100 100 100 98 96 99 99 94 76 80 78 86 73
92 98 95 97 95 98 100 100 99 99 95 96 97 97 97 97 97 97 96 94 87 82 96 95 97 92 87 92 93 93 94 97 100 83 97 99 100 99 99 94 80 80 74
95 97 100 99 97 100 100 100 100 98 98 96 95 95 96 97 97 96 96 95 91 86 90 94 94 91 93 92 92 93 94 98 100 99 100 100 100 100 100 100 100 96 58
100 99 99 100 100 100 100 100 100 99 97 95 96 96 95 95 98 99 100 99 100 93 69 91 92 89 92 92 96 94 98 96 99 99 100 100 100 100 100 100 100 99 90
99 98 100 100 99 100 100 100 100 100 99 96 96 96 96 96 95 95 94 93 94 96 87 74 92 93 90 91 94 96 95 95 99 97 100 100 100 100 100 100 100 100 94
99 99 97 98 99 97 99 100 100 100 100 98 96 96 96 96 95 95 95 93 95 98 100 92 91 94 93 93 94 94 97 97 98 100 98 100 100 100 100 100 100 100 100
98 99 100 100 100 100 99 99 99 99 98 98 98 96 96 96 95 96 95 96 98 99 98 100 99 95 98 96 97 98 99 100 99 98 98 100 100 100 100 100 100 100 100
99 98 100 99 99 100 100 100 99 99 98 98 97 97 94 96 96 95 96 95 94 94 99 100 100 94 99 98 91 99 100 97 91 84 87 97 100 100 100 100 100 100 99
96 100 99 97 98 97 98 99 99 100 99 97 98 98 97 96 96 96 95 95 95 95 96 96 99 100 98 93 86 78 78 61 62 52 59 83 100 100 96 100 100 100 100